[[{"header":{"parameterUnit":"m.s-1","parameterCategory":1,"la1":30.2991,"la2":30.254,"lo1":-89.0895,"lo2":-89.0444,"dy":0.0017,"dx":0.0017,"nx":28,"ny":28,"refTime":"2023-10-07T21:00:00:Z","depth":0,"parameterNumber":2,"parameterNumberName":"U-component_of_WINDS"},"data":[0,0,0,0,0,0,0,0,0,0,0,0,0,0,0,0,0,0,0,0,0,0,0,0,0,0,0,0,0,0,0,0,0,0,0,0,0,0,0,0,0,0,0,0,0,0,0,0,0,0,0,0,0,0,0,0,0,0,-1.6883,-1.6884,0,-1.6955,-1.6956,-1.6957,-1.692,-1.6918,-1.6916,-1.6914,-1.6987,-1.699,-1.6994,0,0,0,0,0,0,0,0,0,0,0,0,0,-1.671,-1.6713,-1.6883,-1.6884,-1.6885,-1.6955,-1.6956,-1.6957,-1.692,-1.6918,-1.6915,-1.6913,-1.6985,-1.699,-1.6994,0,0,0,0,0,0,0,0,0,0,0,0,0,-1.6784,-1.6715,-1.6883,-1.6875,-1.6875,-1.6955,-1.6956,-1.6958,-1.692,-1.6918,-1.6915,-1.6912,-1.6984,-1.6989,-1.6995,-1.7087,0,0,-1.7012,-1.7014,0,0,0,0,0,0,0,0,-1.678,-1.679,-1.6875,-1.6876,-1.6876,-1.6926,-1.6922,-1.7001,-1.6921,-1.6903,-1.6914,-1.6911,-1.6969,-1.6975,-1.6995,-1.709,-1.7093,-1.7012,-1.7016,-1.7018,-1.702,0,0,0,0,0,0,0,-1.6775,-1.6787,-1.6912,-1.6876,-1.6877,-1.6867,-1.6874,-1.6937,-1.6951,-1.6904,-1.6902,-1.6911,-1.6968,-1.699,-1.6997,-1.7095,-1.7012,-1.7017,-1.7021,-1.7023,-1.7268,-1.7271,0,0,0,0,0,0,-1.677,-1.6783,-1.6909,-1.6914,-1.682,-1.6872,-1.688,-1.6912,-1.695,-1.6953,-1.6913,-1.6909,-1.6982,-1.699,-1.6999,-1.7109,-1.7018,-1.7023,-1.7027,-1.7265,-1.7269,-1.7272,0,0,0,0,0,0,-1.6767,-1.6782,-1.6906,-1.6848,-1.6863,-1.6878,-1.6915,-1.6915,-1.6937,-1.6957,-1.6959,-1.6933,-1.698,-1.6991,-1.7065,-1.7111,-1.7026,-1.7031,-1.7261,-1.7266,-1.727,-1.7331,0,0,0,0,0,0,-1.6762,-1.6781,-1.6817,-1.6849,-1.6866,-1.6973,-1.6917,-1.6919,-1.6947,-1.6942,-1.6976,-1.6979,-1.6978,-1.7057,-1.7071,-1.7117,-1.7035,-1.7257,-1.7263,-1.7269,-1.7325,-1.7337,-1.7347,0,0,0,0,0,-1.6756,-1.6831,-1.6819,-1.6835,-1.6912,-1.6976,-1.6985,-1.6983,-1.6951,-1.6987,-1.6999,-1.6978,-1.7103,-1.7065,-1.708,-1.7129,-1.7254,-1.7261,-1.7268,-1.732,-1.7335,-1.7347,0,0,0,0,0,0,-1.6804,-1.6835,-1.6822,-1.691,-1.694,-1.6969,-1.7015,-1.6999,-1.7039,-1.7033,-1.7028,-1.7036,-1.7113,-1.7128,-1.7085,-1.722,-1.7174,-1.7184,-1.7208,-1.7222,-1.7233,-1.7229,-1.704,0,0,0,0,0,-1.6825,-1.6875,-1.6899,-1.6974,-1.699,-1.6999,-1.7027,-1.7023,-1.7054,-1.7067,-1.7085,-1.7115,-1.7161,-1.7192,-1.7236,-1.7326,-1.7333,-1.7367,-1.7378,-1.7387,-1.7397,-1.7445,-1.7461,-1.7295,-1.7295,-1.7295,0,0,-1.6868,-1.6891,-1.6923,-1.6984,-1.7007,-1.7058,-1.7011,-1.7067,-1.7105,-1.7075,-1.7147,-1.7161,-1.7194,-1.7277,-1.7314,-1.7292,-1.7444,-1.7396,-1.7403,-1.7408,-1.7454,-1.747,-1.7484,-1.73,-1.7299,-1.7298,0,0,-1.6974,-1.6997,-1.7062,-1.7086,-1.7121,-1.7127,-1.7142,-1.7173,-1.7181,-1.7253,-1.7231,-1.7275,-1.7355,-1.738,-1.7403,-1.7516,-1.7498,-1.753,-1.759,-1.7637,-1.765,-1.7662,-1.7702,-1.7717,-1.7539,-1.7539,-1.7539,0,-1.7024,-1.7101,-1.7097,-1.7155,-1.7182,-1.7157,-1.7222,-1.7245,-1.7293,-1.7312,-1.7286,-1.7385,-1.7406,-1.7494,-1.7521,-1.754,-1.7557,-1.7527,-1.7649,-1.766,-1.7671,-1.771,-1.7725,-1.7543,-1.7543,-1.7542,-1.7542,0,-1.7161,-1.7214,-1.7262,-1.731,-1.7341,-1.7403,-1.7407,-1.744,-1.7432,-1.744,-1.7512,-1.7536,-1.7584,-1.7603,-1.7596,-1.769,-1.7675,-1.7649,-1.7603,-1.7691,-1.7727,-1.7742,-1.7548,-1.7547,-1.7546,-1.7545,0,0,-1.7302,-1.7344,-1.7362,-1.7383,-1.7419,-1.746,-1.7519,-1.7566,-1.7594,-1.7627,-1.7677,-1.7744,-1.772,-1.7746,-1.7741,-1.7782,-1.787,-1.775,-1.7751,-1.7772,-1.7974,-1.7995,-1.8012,-1.7857,-1.786,-1.7862,-1.7972,0,-1.7411,-1.7516,-1.7513,-1.761,-1.7659,-1.7635,-1.7686,-1.7714,-1.7722,-1.7764,-1.7773,-1.7821,-1.7785,-1.78,-1.784,-1.7851,-1.7911,-1.7843,-1.7903,-1.7905,-1.7897,-1.8031,-1.8054,-1.8156,-1.7986,-1.7988,-1.799,0,-1.7553,-1.7591,-1.7694,-1.7722,-1.7742,-1.7789,-1.7831,-1.7872,-1.7901,-1.7904,-1.7933,-1.7921,-1.7979,-1.793,-1.8011,-1.7965,-1.7989,-1.7998,-1.8002,-1.8009,-1.7954,-1.8043,-1.8189,-1.8205,-1.8012,-1.8011,-1.8009,0,-1.7647,-1.7723,-1.7794,-1.7813,-1.7847,-1.788,-1.7896,-1.7923,-1.7951,-1.7987,-1.8005,-1.8047,-1.8071,-1.8103,-1.8102,-1.8067,-1.8184,-1.8135,-1.8188,-1.8188,-1.8216,-1.8214,-1.8369,-1.8229,-1.8229,-1.8228,-1.8228,0,-1.777,-1.7834,-1.7837,-1.7881,-1.7951,-1.7946,-1.8015,-1.8027,-1.8051,-1.8096,-1.8076,-1.8119,-1.8115,-1.8157,-1.8156,-1.8223,-1.8234,-1.8238,-1.8237,-1.8241,-1.824,-1.8257,-1.8251,-1.8233,-1.8232,-1.8231,-1.823,0,-1.7887,-1.7892,-1.7968,-1.7994,-1.8002,-1.8052,-1.8074,-1.8115,-1.8121,-1.8178,-1.8191,-1.82,-1.8249,-1.8251,-1.8307,-1.8306,-1.8388,-1.8379,-1.8379,-1.8377,-1.8431,-1.8426,-1.8603,-1.8626,-1.847,-1.8471,-1.8473,0,-1.7967,-1.8016,-1.8046,-1.8075,-1.8093,-1.814,-1.8168,-1.8164,-1.8194,-1.823,-1.8267,-1.8314,-1.8352,-1.843,-1.8441,-1.8484,-1.8476,-1.8535,-1.8482,-1.8484,-1.8478,-1.8476,-1.848,-1.8546,-1.8548,-1.8549,-1.855,0,-1.8107,-1.8107,-1.8149,-1.8192,-1.8226,-1.8259,-1.829,-1.8314,-1.8313,-1.8348,-1.8398,-1.8427,-1.8483,-1.853,-1.8571,-1.8586,-1.8568,-1.8566,-1.8581,-1.8586,-1.8584,-1.8586,-1.8408,-1.8563,-1.8561,-1.8561,-1.856,-1.8559,-1.8209,-1.8251,-1.8279,-1.8326,-1.8349,-1.8377,-1.8417,-1.8427,-1.8469,-1.8516,-1.851,-1.8565,-1.8591,-1.8644,-1.8662,-1.8705,-1.8685,-1.8706,-1.8711,-1.8717,-1.8723,-1.8576,-1.8712,-1.8712,-1.8711,-1.8711,-1.8711,0,-1.8349,-1.8366,-1.8409,-1.8453,-1.8489,-1.8469,-1.8501,-1.8533,-1.8582,-1.8609,-1.8646,-1.8702,-1.8747,-1.8761,-1.8804,-1.8835,-1.8828,-1.8846,-1.8845,-1.8849,-1.8739,-1.8722,-1.8852,-1.8852,-1.8852,-1.8852,-1.8851,-1.8851,-1.8427,-1.8497,-1.8499,-1.8579,-1.8595,-1.865,-1.867,-1.8696,-1.8717,-1.8781,-1.8818,-1.8827,-1.8848,-1.8892,-1.8931,-1.8934,-1.8951,-1.8973,-1.8973,-1.887,-1.8856,-1.8843,-1.8827,-1.8977,-1.8977,-1.9079,-1.908,-1.9081]},{"header":{"parameterUnit":"m.s-1","parameterCategory":1,"la1":30.2991,"la2":30.254,"lo1":-89.0895,"lo2":-89.0444,"dy":0.0017,"dx":0.0017,"nx":28,"ny":28,"refTime":"2023-10-07T21:00:00:Z","depth":0,"parameterNumber":3,"parameterNumberName":"V-component_of_WINDS"},"data":[0,0,0,0,0,0,0,0,0,0,0,0,0,0,0,0,0,0,0,0,0,0,0,0,0,0,0,0,0,0,0,0,0,0,0,0,0,0,0,0,0,0,0,0,0,0,0,0,0,0,0,0,0,0,0,0,0,0,-7.5142,-7.5143,0,-7.5289,-7.5291,-7.5292,-7.5184,-7.5179,-7.5174,-7.517,-7.5314,-7.5322,-7.533,0,0,0,0,0,0,0,0,0,0,0,0,0,-7.4759,-7.4766,-7.5141,-7.5143,-7.5145,-7.5289,-7.5291,-7.5293,-7.5185,-7.5179,-7.5173,-7.5168,-7.5311,-7.5321,-7.533,0,0,0,0,0,0,0,0,0,0,0,0,0,-7.4917,-7.4769,-7.5141,-7.5109,-7.5107,-7.5288,-7.5291,-7.5293,-7.5186,-7.5179,-7.5172,-7.5165,-7.5308,-7.532,-7.5332,-7.5551,0,0,-7.537,-7.5375,0,0,0,0,0,0,0,0,-7.4908,-7.4931,-7.5112,-7.5111,-7.511,-7.5211,-7.5208,-7.5379,-7.5188,-7.5156,-7.517,-7.5162,-7.5285,-7.5298,-7.5342,-7.5557,-7.5563,-7.5371,-7.5378,-7.5384,-7.5387,0,0,0,0,0,0,0,-7.4898,-7.4924,-7.5199,-7.5114,-7.5113,-7.5084,-7.5099,-7.524,-7.5258,-7.5158,-7.5151,-7.517,-7.5283,-7.533,-7.5344,-7.5566,-7.537,-7.5381,-7.5389,-7.5394,-7.5968,-7.5975,0,0,0,0,0,0,-7.4891,-7.4916,-7.5195,-7.5204,-7.499,-7.5097,-7.5113,-7.5186,-7.5256,-7.526,-7.5176,-7.5164,-7.5312,-7.533,-7.5349,-7.561,-7.5383,-7.5395,-7.5402,-7.596,-7.5969,-7.5978,0,0,0,0,0,0,-7.4883,-7.4917,-7.5189,-7.5058,-7.5091,-7.5111,-7.5193,-7.5192,-7.5239,-7.527,-7.5272,-7.5221,-7.5307,-7.5331,-7.5502,-7.5613,-7.5401,-7.5412,-7.5951,-7.5963,-7.5974,-7.6134,0,0,0,0,0,0,-7.4872,-7.4914,-7.5,-7.5061,-7.5098,-7.5342,-7.52,-7.52,-7.5262,-7.5248,-7.5313,-7.5317,-7.5304,-7.5484,-7.5514,-7.5626,-7.5422,-7.5941,-7.5956,-7.597,-7.6119,-7.6149,-7.6176,0,0,0,0,0,-7.4859,-7.5037,-7.5005,-7.5039,-7.5205,-7.5349,-7.537,-7.5353,-7.5271,-7.5356,-7.5375,-7.5315,-7.5596,-7.5502,-7.5535,-7.5653,-7.5934,-7.5952,-7.5969,-7.6106,-7.6143,-7.6175,0,0,0,0,0,0,-7.4986,-7.5045,-7.5009,-7.5213,-7.5277,-7.533,-7.5437,-7.5394,-7.548,-7.5464,-7.5437,-7.5452,-7.5631,-7.5659,-7.5553,-7.5868,-7.5751,-7.5776,-7.5844,-7.588,-7.5908,-7.5898,-7.5432,0,0,0,0,0,-7.5038,-7.5152,-7.5196,-7.5371,-7.5406,-7.5416,-7.5478,-7.546,-7.5524,-7.555,-7.5582,-7.5645,-7.5747,-7.5815,-7.591,-7.6122,-7.6134,-7.6219,-7.6247,-7.6271,-7.6293,-7.6406,-7.6444,-7.6036,-7.6035,-7.6035,0,0,-7.5145,-7.5192,-7.5265,-7.5398,-7.5446,-7.5562,-7.544,-7.5568,-7.5654,-7.5568,-7.5732,-7.5758,-7.5826,-7.6018,-7.6104,-7.6046,-7.6408,-7.6293,-7.6312,-7.6321,-7.6428,-7.6467,-7.6501,-7.6047,-7.6045,-7.6043,0,0,-7.5402,-7.5449,-7.5601,-7.5652,-7.5726,-7.5732,-7.5768,-7.5829,-7.5844,-7.6008,-7.5947,-7.6046,-7.6224,-7.6275,-7.6324,-7.6601,-7.6548,-7.6632,-7.6782,-7.6893,-7.6925,-7.6953,-7.7052,-7.7088,-7.6654,-7.6654,-7.6654,0,-7.5526,-7.5702,-7.5683,-7.5818,-7.5877,-7.5808,-7.596,-7.6009,-7.6111,-7.6152,-7.6087,-7.6308,-7.6349,-7.6552,-7.662,-7.6661,-7.6701,-7.6625,-7.6922,-7.6951,-7.6977,-7.7071,-7.7108,-7.6664,-7.6663,-7.6662,-7.6661,0,-7.5851,-7.5974,-7.6087,-7.619,-7.6262,-7.6404,-7.6405,-7.648,-7.6455,-7.6467,-7.6635,-7.6682,-7.6786,-7.6832,-7.6808,-7.7032,-7.6994,-7.6926,-7.6808,-7.7026,-7.7114,-7.715,-7.6678,-7.6675,-7.6672,-7.6669,0,0,-7.6192,-7.6283,-7.6325,-7.6371,-7.6448,-7.6542,-7.668,-7.6785,-7.6849,-7.6921,-7.7035,-7.7187,-7.7125,-7.7181,-7.7162,-7.7259,-7.7476,-7.7179,-7.718,-7.7233,-7.7725,-7.7776,-7.7818,-7.7441,-7.7448,-7.7453,-7.7719,0,-7.6453,-7.6698,-7.6684,-7.6913,-7.7025,-7.6961,-7.7081,-7.7141,-7.7156,-7.7251,-7.7265,-7.7374,-7.7284,-7.7317,-7.7411,-7.743,-7.7574,-7.741,-7.7546,-7.7551,-7.7532,-7.7864,-7.7918,-7.8167,-7.7753,-7.7759,-7.7763,0,-7.679,-7.6877,-7.7118,-7.7179,-7.7225,-7.7334,-7.7429,-7.7522,-7.7587,-7.7591,-7.7654,-7.7619,-7.7757,-7.7635,-7.7824,-7.7713,-7.7767,-7.7784,-7.7794,-7.7806,-7.7671,-7.7885,-7.8246,-7.8284,-7.7817,-7.7813,-7.7809,0,-7.7015,-7.7191,-7.7358,-7.7399,-7.7475,-7.7553,-7.7587,-7.7645,-7.7709,-7.7791,-7.7832,-7.7928,-7.798,-7.8054,-7.8045,-7.7958,-7.8237,-7.8115,-7.8243,-7.8243,-7.8305,-7.8301,-7.868,-7.8339,-7.8339,-7.8338,-7.8337,0,-7.7308,-7.7458,-7.7461,-7.7564,-7.7729,-7.7711,-7.7874,-7.79,-7.7952,-7.8057,-7.8006,-7.8104,-7.8087,-7.8185,-7.8178,-7.8335,-7.8359,-7.8364,-7.8361,-7.837,-7.8369,-7.8405,-7.8388,-7.8348,-7.8346,-7.8344,-7.8342,0,-7.7588,-7.7596,-7.7774,-7.7831,-7.7849,-7.7969,-7.8016,-7.8112,-7.8123,-7.8256,-7.8286,-7.8302,-7.8415,-7.8413,-7.8541,-7.8536,-7.8729,-7.8705,-7.8709,-7.8704,-7.8832,-7.882,-7.9248,-7.9303,-7.8926,-7.893,-7.8933,0,-7.7775,-7.7889,-7.796,-7.8028,-7.8068,-7.8178,-7.8243,-7.823,-7.8299,-7.8383,-7.8469,-7.8577,-7.8664,-7.8847,-7.8868,-7.8965,-7.8943,-7.9087,-7.8957,-7.8963,-7.8946,-7.894,-7.8951,-7.9112,-7.9116,-7.912,-7.9122,0,-7.8106,-7.8105,-7.8203,-7.8303,-7.8384,-7.8461,-7.8532,-7.859,-7.8583,-7.8664,-7.8781,-7.8848,-7.898,-7.9088,-7.9182,-7.9214,-7.9168,-7.9163,-7.9198,-7.9208,-7.9205,-7.9209,-7.8778,-7.9153,-7.915,-7.9148,-7.9146,-7.9145,-7.8345,-7.8444,-7.851,-7.8621,-7.8673,-7.8741,-7.8835,-7.8858,-7.8956,-7.9064,-7.9049,-7.9179,-7.924,-7.9361,-7.9402,-7.9502,-7.9451,-7.9501,-7.9514,-7.9527,-7.9542,-7.919,-7.9519,-7.9518,-7.9517,-7.9516,-7.9515,0,-7.8674,-7.8714,-7.8816,-7.8919,-7.9006,-7.8957,-7.9033,-7.9108,-7.9224,-7.9286,-7.9373,-7.9507,-7.9611,-7.9641,-7.9742,-7.9816,-7.9797,-7.9843,-7.9837,-7.9845,-7.9581,-7.9541,-7.9856,-7.9856,-7.9856,-7.9856,-7.9856,-7.9856,-7.8856,-7.9021,-7.9027,-7.9217,-7.9253,-7.9383,-7.9431,-7.9492,-7.9542,-7.9695,-7.9783,-7.9802,-7.9851,-7.9955,-8.0048,-8.0054,-8.0093,-8.0148,-8.0146,-7.9898,-7.9864,-7.9831,-7.9794,-8.0157,-8.0157,-8.0401,-8.0404,-8.0405]}]]